www.pogodaiklimat.ru
Время
(UTC), дата
03:54 16.10
04:54 17.10
05:54 17.10
06:54 17.10
07:54 17.10
08:20 17.10
08:54 17.10
09:54 17.10
10:54 17.10
11:54 17.10
12:54 17.10
13:30 17.10
13:54 17.10
14:24 17.10
14:54 17.10
15:54 17.10
16:54 17.10
17:54 17.10
18:54 17.10
19:54 17.10
20:54 17.10
21:54 17.10
22:54 17.10
23:54 17.10
00:54 17.10
01:54 17.10
02:54 17.10
03:54 17.10
04:54 18.10
05:54 18.10
06:54 18.10
07:54 18.10
08:54 18.10
09:54 18.10
10:25 18.10
10:54 18.10
11:54 18.10
12:54 18.10
13:54 18.10
14:54 18.10
15:54 18.10
16:54 18.10
17:54 18.10
18:54 18.10
19:54 18.10
20:54 18.10
21:54 18.10
22:54 18.10
Ветер
(напр.,м/с)
Видим. Явления Облачность Т
(С)
Тd
(С)
f
(%)
Тe
(С)
Тes
(С)
Комфортность P
(гПа)
Po
(гПа)
Тmin
(С)
Tmax
(С)
R
(мм)
R24
(мм)
S
(см)
З 4 16 км 10/10 750 м +8.3 +3.3 71 +5 +5 1012.6 977.0
З 4
{10}
16 км 10/10 750 м +8.3 +3.3 71 +5 +5 1012.5 977.0 +7.2 +8.9
З 4
{8}
16 км 10/10 840 м +8.3 +3.3 71 +5 +5 1012.7 977.0
З 4 16 км 10/10 780 м +8.3 +3.3 71 +5 +5 1012.4 977.0
З 4
{8}
16 км 10/10 780 м +7.8 +3.3 73 +5 +5 1012.7 977.0
З 3 16 км 8/8 750 м +7.8 +3.3 73 +5 +5 977.0
З 4 16 км 8/8 750 м +7.2 +3.3 76 +4 +4 1012.9 977.3
З 4 16 км ясно +6.7 +2.8 76 +3 +3 1013.7 978.0
З 4 16 км 2/2 240 м +6.1 +2.8 79 +2 +2 1013.9 978.3 +6.1 +8.9 10.9
З 3 16 км 5/5 450 м +7.2 +3.3 76 +4 +4 1014.6 979.0
нст 3 16 км 5/5 720 м +8.3 +3.3 71 +6 +6 1014.6 979.0
З 4 16 км 8/8 780 м +9.4 +3.3 66 +7 +7 979.0
З 5 16 км 8/8 780 м +9.4 +2.8 63 +6 +6 1014.6 979.0
СЗ 5
{10}
16 км 8/8 900 м +10.0 +2.2 58 +7 +7 979.0
З 6
{9}
16 км 8/8 1020 м +10.6 +2.2 56 +7 +8 1014.3 978.6
З 4
{9}
16 км 8/8 1140 м +12.8 +2.2 48 +11 +12 1014.0 978.3
З 6
{12}
16 км 8/8 1320 м +12.8 +1.7 47 +10 +11 1013.2 977.7 +6.1 +13.3
З 4
{9}
16 км 8/8 1350 м
[средняя]
+13.3 +1.7 45 +12 +13 1012.9 977.3
СЗ 6
{11}
16 км 8/8 1470 м +15.0 +1.7 41 +13 +14 1012.9 977.7
СЗ 5 16 км 8/8 1440 м +12.8 +1.7 47 +11 +11 1013.1 977.7
СЗ 3
{8}
16 км 8/8 1500 м +12.8 +1.7 47 +11 +12 1013.5 978.0
СЗ 3 16 км 5/5 1500 м +11.1 +1.7 52 +10 +10 1013.9 978.3
СЗ 2 16 км 5/5 1500 м
[средняя]
+10.0 +2.2 58 +8 +8 1014.3 978.6 +10.0 +15.0
0 16 км 2/2 1500 м +8.9 +3.3 68 +8 +8 1015.0 979.3
0 16 км 5/5 1650 м +7.8 +3.9 76 +7 +7 1015.6 980.0
0 16 км 5/5 1650 м +7.8 +3.9 76 +7 +7 1016.1 980.3
0 16 км 8/8 1650 м +7.8 +4.4 79 +7 +7 1016.1 980.6
0 16 км 10/10 1650 м +7.2 +5.0 86 +6 +6 1015.9 980.3
0 16 км 10/10 1650 м +7.2 +5.0 86 +6 +6 1015.9 980.3 +7.2 +10.6
ЮЗ 1 16 км 8/8 1500 м +7.2 +5.0 86 +6 +6 1016.0 980.3
0 16 км 8/8 1500 м +7.2 +5.6 90 +6 +6 1016.2 980.6
0 16 км ясно +6.7 +5.0 89 +6 +6 1016.5 980.9
ЮЗ 1 16 км 2/2 1410 м +5.6 +4.4 92 +3 +3 1017.2 981.6
0 16 км 2/2 1410 м +4.4 +3.9 97 +3 +3 1018.0 982.2
ЮЗ 1 16 км 2/2 0 м +3.9 +2.8 93 +1 +1 982.2
0 16 км 2/2 0 м +3.9 +3.3 96 +3 +3 1018.5 982.6 +3.9 +7.8
ЮЗ 1 16 км 2/2 30 м +5.6 +4.4 92 +3 +3 1019.3 983.2
0 16 км 2/2 240 м +8.3 +4.4 76 +8 +8 1019.9 983.9
0 16 км 5/5 720 м +10.6 +4.4 65 +10 +12 1019.5 983.6
0 16 км 8/8 1050 м +11.7 +2.2 52 +11 +13 1019.5 983.6
нст 2 16 км 5/5 1200 м +13.3 +2.8 49 +13 +16 1019.1 983.2
0 16 км 2/2 1440 м +13.3 +2.2 47 +13 +23 1018.3 982.6 +3.9 +13.9
0 16 км ясно +15.0 +1.7 41 +15 +27 опасность
простуды
1017.6 981.9
0 16 км 2/0 9000 м
[верхняя]
+15.6 +1.7 39 +16 +26 1017.2 981.6
0 16 км 5/0 7500 м
[верхняя]
+15.0 +1.1 39 +15 +21 1016.9 981.3
0 16 км 5/0 7500 м
[верхняя]
+15.0 +1.1 39 +15 +18 1016.9 981.3
0 16 км 2/0 7500 м
[верхняя]
+12.8 +2.8 51 +13 +13 1017.2 981.6
0 16 км 2/0 7500 м
[верхняя]
+9.4 +4.4 71 +9 +9 1017.1 981.3 +9.4 +16.7
Местоположение метеостанции Charleston Yeager Airport: широта 38.3794 долгота -81.5914 высота над уровнем моря 299 м.
В архиве по умолчанию представлена погода в Чарльстоне за последние 1-2 суток. Обновление информации о фактической погоде в базе происходит ежечасно! Архивные данные за месяц целиком и за предыдущие месяцы Вы можете получить, выбрав интересующий диапазон дат из раскрывающегося списка и нажав кнопку "Ввод!".
Внимание! Архив погоды МЕТАР в базе сайта по станциям, не включенным в климатический монитор, хранится не более 60 дней. Нет смысла пытаться выбрать более раннюю дату.
*Определитесь, кто Вы:
Внимание! Время в таблицах - всемирное. Для получения местного времени необходимо прибавить поправку, которая равна ч.
Смотрите также архив погоды в соседних городах и на ближайших метеорологических станциях:
Партнеры нашего сайта:      
Пояснения к столбцам:
  • Ветер - указаны скорость ветра в м/с - средняя за 10 мин, порывы в срок и между сроками (в фигурных скобках) и направление, откуда дует ветер: С - северный,
  • СВ - северо-восточный, В - восточный, ЮВ - юго-восточный, Ю - южный, ЮЗ - юго-западный, З - западный, СЗ - северо-западный.
  • Видимость - горизонтальная дальность видимости в метрах или километрах. При видимости от 1 до 10 км при отсутствии осадков обычно наблюдается дымка, при ухудшении видимости до 1 км и менее - туман. В сухую погоду видимость может ухудшаться дымом, пылью или мглою.
  • Явления - указаны атмосферные явления, наблюдавшиеся в срок или в последний час перед сроком; фигурными скобками обозначены явления, наблюдавшиеся между сроками (за 1-3 часа до срока); квадратными скобками обозначены град или гололедные отложения с указанием их диаметра в мм.
  • Облачность - указаны через наклонную черту общая и нижняя облачность в баллах и высота нижней границы облаков в метрах; квадратными скобками обозначены формы облаков: Ci - перистые, Cs - перисто-слоистые, Cc - перисто-кучевые, Ac - высококучевые, As - высокослоистые, Sc - слоисто-кучевые, Ns - слоисто-дождевые, Cu - кучевые, Cb - кучево-дождевые. Подробнее классификацию облаков см. в Атласе облаков (PDF).
  • T - Температура воздуха - температура, измеренная на высоте 2 м над землей.
  • Td - Температура точки росы - температура, при понижении до которой содержащийся в воздухе водяной пар достигнет насыщения.
  • f - Относительная влажность воздуха - влажноcть воздуха, измеренная на высоте 2 м над землей.
  • Te - Эффективная температура - температура, которую ощущает одетый по сезону человек в тени. Характеристика душности погоды. При расчете учитывается влияние влажности воздуха и скорости ветра на теплоощущения человека.
  • Tes - Эффективная температура на солнце - температура, которую ощущает человек, с поправкой на солнечный нагрев. Характеристика знойности погоды. Зависит от высоты солнца над горизонтом, облачности и скорости ветра. Ночью, в пасмурную погоду, а также при ветре 12 м/с и более поправка равна нулю.
  • P - Атмосферное давление - приведенное к уровню моря атмосферное давление.
  • Po - Атмосферное давление - измеренное на уровне метеостанции атмосферное давление.
  • Tmin - Минимальная температура - минимум температуры воздуха на высоте 2 м над землей.
  • Tmax - Максимальная температура - максимум температуры воздуха на высоте 2 м над землей.
  • R - Количество осадков - Количество выпавших осадков за период времени, мм. При наведении курсора мыши на число - период времени, за который выпало указанное количество осадков.
  • R24 - Количество осадков - Количество выпавших осадков за 24 часа, мм.
  • S - Снежный покров - Высота снежного покрова, см. При наведении курсора мыши на число - состояние снежного покрова и степень покрытия местности в баллах.